Location: DARK SKY Beskydy - Park tmavé oblohy, www.darkskybeskydy.cz
(49.4926°N, 18.5016°E)
Time: 15:11:52
(UTC+01:00)

Vanguard 1 - Pass Details

Date: 13 November 2025
Orbit: 650 x 3821 km, 34.2° (Epoch: 07 December)

Event Time Altitude Azimuth Distance (km) Brightness Sun altitude
Rises 22:18:50 0° 276° (W) 7,961 15.0 -55.6°
Reaches altitude 10° 22:25:19 10° 269° (W) 6,829 14.4 -56.1°
Enters shadow 22:36:29 27° 244° (WSW) 5,008 13.4 -56.9°
